Location: Cutler
(25.6150°N, 80.3110°W)
Time: 21:06:01
(UTC-05:00)

Vanguard 2 Rocket - All Passes

Search period start: 23 January 2018 00:00
Search period end: 02 February 2018 00:00
Orbit: 556 x 3326 km, 32.9° (Epoch: 22 January)

Date Brightness Start Highest point End Pass type
(mag) Time Alt. Az. Time Alt. Az. Time Alt. Az.
23 Jan - 03:20:55 10° SSW 03:36:28 30° SE 03:48:14 10° E visible
23 Jan - 05:36:10 10° SW 05:53:41 66° SSE 06:03:59 10° ENE visible
23 Jan - 07:55:56 10° W 08:09:27 67° NNW 08:16:48 10° ENE daylight
23 Jan - 10:16:01 10° WNW 10:24:17 46° N 10:29:18 10° ENE daylight
23 Jan - 12:32:34 10° WNW 12:38:02 90° SSW 12:42:02 10° ESE daylight
23 Jan - 14:48:56 10° SW 14:50:21 12° SW 14:51:47 10° SSW daylight
24 Jan - 02:21:27 10° S 02:34:50 22° SE 02:46:10 10° E visible
24 Jan - 04:34:20 10° SW 04:52:35 53° SSE 05:04:21 10° ENE visible
24 Jan - 06:53:02 10° WSW 07:09:05 82° NNW 07:17:54 10° ENE daylight
24 Jan - 09:13:54 10° W 09:24:26 51° N 09:30:27 10° ENE daylight
24 Jan - 11:32:05 10° WNW 11:38:50 63° NNE 11:43:12 10° E daylight
24 Jan - 13:47:49 10° W 13:51:25 24° SW 13:54:39 10° SSE daylight
25 Jan - 01:23:58 10° SSE 01:33:04 15° SE 01:41:35 10° ESE visible
25 Jan - 03:33:08 10° SSW 03:51:08 43° SSE 04:04:09 10° E visible
25 Jan - 05:50:15 10° WSW 06:08:20 84° SSE 06:18:45 10° ENE visible
25 Jan - 08:11:08 10° W 08:24:18 58° NNW 08:31:34 10° ENE daylight
25 Jan - 10:30:57 10° WNW 10:39:19 54° N 10:44:19 10° E daylight
25 Jan - 12:47:22 10° WNW 12:52:35 47° SSW 12:56:28 10° SE daylight
26 Jan - 02:32:46 10° SSW 02:49:30 33° SE 03:03:06 10° E visible
26 Jan - 04:47:54 10° SW 05:07:10 70° SSE 05:19:18 10° ENE visible
26 Jan - 07:08:01 10° W 07:23:51 69° NNW 07:32:36 10° ENE daylight
26 Jan - 09:29:02 10° WNW 09:39:28 52° N 09:45:25 10° ENE daylight
26 Jan - 11:46:46 10° WNW 11:53:35 83° SSW 11:57:58 10° ESE daylight
26 Jan - 14:04:52 10° SW 14:05:42 10° SW 14:06:31 10° SSW daylight
27 Jan - 01:33:30 10° S 01:47:48 24° SE 02:00:45 10° E visible
27 Jan - 03:46:11 10° SW 04:05:40 58° SSE 04:19:23 10° ENE visible
27 Jan - 06:04:53 10° WSW 06:23:00 81° NNW 06:33:28 10° ENE visible
27 Jan - 08:26:24 10° W 08:39:17 55° N 08:46:27 10° ENE daylight
27 Jan - 10:45:42 10° WNW 10:54:14 71° NNE 10:59:16 10° ESE daylight
27 Jan - 13:02:38 10° W 13:06:53 24° SW 13:10:15 10° SSE daylight
28 Jan - 00:36:05 10° S 00:46:06 16° SE 00:55:58 10° ESE visible
28 Jan - 02:45:13 10° SSW 03:03:57 46° SE 03:18:52 10° ENE visible
28 Jan - 05:02:05 10° WSW 05:21:46 86° SSE 05:34:03 10° ENE visible
28 Jan - 07:23:14 10° W 07:38:45 62° N 07:47:25 10° ENE daylight
28 Jan - 09:43:59 10° WNW 09:54:30 61° N 10:00:25 10° E daylight
28 Jan - 12:01:36 10° WNW 12:08:04 47° SSW 12:12:21 10° SE daylight
29 Jan - 01:45:08 10° SSW 02:02:12 35° SE 02:17:26 10° E visible
29 Jan - 03:59:52 10° SW 04:20:10 73° SSE 04:34:16 10° ENE visible
29 Jan - 06:19:53 10° W 06:37:48 70° NNW 06:48:12 10° ENE visible
29 Jan - 08:41:34 10° WNW 08:54:21 58° N 09:01:26 10° E daylight
29 Jan - 11:00:25 10° WNW 11:08:58 78° SSW 11:13:58 10° ESE daylight
29 Jan - 13:19:33 10° WSW 13:20:58 11° SW 13:22:16 10° SSW daylight
30 Jan - 00:46:10 10° S 01:00:32 26° SE 01:14:41 10° E visible
30 Jan - 02:58:25 10° SW 03:18:20 61° SSE 03:34:00 10° ENE visible
30 Jan - 05:16:44 10° WSW 05:36:27 80° NNW 05:48:45 10° ENE visible
30 Jan - 07:38:31 10° W 07:53:48 60° N 08:02:19 10° ENE daylight
30 Jan - 09:58:46 10° WNW 10:09:26 78° NNE 10:15:19 10° ESE daylight
30 Jan - 12:16:52 10° W 12:22:14 25° SW 12:26:05 10° SSE daylight
30 Jan - 23:49:00 10° SSE 23:59:02 17° SE 00:09:31 10° ESE visible
31 Jan - 01:57:47 10° SSW 02:16:26 49° SE 02:33:05 10° ENE visible
31 Jan - 04:14:07 10° WSW 04:34:43 88° SSE 04:49:00 10° ENE visible
31 Jan - 06:35:08 10° W 06:52:46 64° N 07:03:02 10° ENE visible
31 Jan - 08:56:31 10° WNW 09:09:24 67° NNE 09:16:25 10° E daylight
31 Jan - 11:15:15 10° WNW 11:23:22 48° SW 11:28:17 10° SE daylight
01 Feb - 00:58:04 10° SSW 01:14:40 37° SE 01:31:14 10° E visible
01 Feb - 03:12:13 10° SW 03:32:44 76° SSE 03:48:51 10° ENE visible
01 Feb - 05:31:46 10° W 05:51:18 71° NNW 06:03:31 10° ENE visible
01 Feb - 07:53:40 10° WNW 08:08:54 63° N 08:17:19 10° E daylight
01 Feb - 10:13:29 10° WNW 10:24:05 76° SSW 10:29:57 10° ESE daylight
01 Feb - 12:33:26 10° WSW 12:36:09 13° SW 12:38:27 10° SSW daylight
